CDT,Max TemperatureF,Mean TemperatureF,Min TemperatureF,Max Dew PointF,MeanDew PointF,Min DewpointF,Max Humidity, Mean Humidity, Min Humidity, Max Sea Level PressureIn, Mean Sea Level PressureIn, Min Sea Level PressureIn, Max VisibilityMiles, Mean VisibilityMiles, Min VisibilityMiles, Max Wind SpeedMPH, Mean Wind SpeedMPH, Max Gust SpeedMPH,PrecipitationIn, CloudCover, Events, WindDirDegrees
2013-10-1,75,65,55,55,49,37,87,61,31,30.02,29.86,29.74,10,10,10,18,11,24,0.00,0,,256
2013-10-2,74,60,46,53,41,34,80,49,26,30.10,30.01,29.89,10,10,7,15,5,20,0.00,0,,145
2013-10-3,68,62,57,64,60,54,100,93,68,29.95,29.87,29.81,10,8,0,17,6,28,0.48,6,Fog-Rain-Thunderstorm,85
2013-10-4,65,62,58,63,61,58,100,97,89,29.96,29.90,29.79,10,4,0,18,7,28,1.20,8,Fog-Rain-Thunderstorm,56
2013-10-5,65,55,45,61,52,39,99,83,61,29.89,29.82,29.77,10,9,1,25,10,37,1.76,6,Rain-Thunderstorm,201
2013-10-6,49,46,43,48,42,38,97,84,69,29.82,29.74,29.71,10,10,2,15,3,25,0.04,8,Rain,231
2013-10-7,64,53,42,48,43,40,96,72,42,30.04,29.94,29.82,10,10,10,15,9,24,0.00,1,,298
2013-10-8,74,60,45,46,43,42,87,56,32,30.05,30.02,29.97,10,10,4,22,10,31,0.00,0,,181
2013-10-9,71,61,51,51,47,45,83,62,42,30.14,30.09,30.04,10,10,10,17,11,24,0.00,0,,179
2013-10-10,72,60,48,52,48,43,86,66,43,30.10,30.04,29.96,10,10,10,16,8,21,0.00,0,,162
2013-10-11,72,62,53,56,53,50,94,69,52,29.96,29.86,29.77,10,10,7,24,12,33,0.00,2,,155
2013-10-12,66,56,46,55,42,34,82,62,38,30.20,29.99,29.78,10,10,10,24,13,32,0.00,1,,263
2013-10-13,59,48,36,39,35,32,87,61,39,30.43,30.36,30.21,10,10,7,9,6,,0.00,0,,308
2013-10-14,59,46,33,45,37,32,93,65,43,30.41,30.25,29.98,10,10,10,17,6,26,0.00,2,,125
2013-10-15,53,48,44,54,47,43,100,90,76,29.97,29.79,29.74,10,7,2,20,13,28,0.00,8,,199
2013-10-16,48,42,36,48,42,35,99,92,84,29.94,29.89,29.77,10,9,2,17,10,22,0.00,6,,313
2013-10-17,55,45,35,44,37,34,99,78,48,29.93,29.85,29.80,10,9,4,14,6,17,0.00,2,Rain,238
2013-10-18,49,43,37,43,35,29,97,74,46,29.97,29.91,29.84,10,9,4,21,12,26,0.00,5,,292
2013-10-19,47,40,32,38,33,28,93,79,64,29.89,29.78,29.71,10,10,7,16,8,21,0.00,5,Rain,254
2013-10-20,51,40,29,42,34,27,94,82,64,29.86,29.74,29.64,10,10,7,24,8,32,0.01,6,Rain-Snow,225
2013-10-21,38,33,28,32,25,21,87,69,52,29.96,29.93,29.86,10,10,10,23,13,29,0.00,6,,299
2013-10-22,39,32,24,31,26,21,89,80,69,30.01,29.97,29.94,10,10,10,14,6,18,0.00,4,,315
2013-10-23,39,34,28,31,26,20,94,75,49,30.07,30.02,29.98,10,10,7,17,9,22,0.00,7,Snow,303
2013-10-24,41,35,29,27,24,20,80,67,50,30.31,30.21,30.07,10,10,10,16,8,23,0.00,7,,312
2013-10-25,52,39,26,34,29,24,94,68,43,30.33,30.15,29.86,10,10,7,25,9,34,0.00,2,,225
2013-10-26,48,40,32,36,31,28,84,65,49,30.09,29.98,29.82,10,10,10,21,14,32,0.00,2,,303
2013-10-27,58,43,28,33,30,26,91,65,37,30.06,29.95,29.82,10,10,10,18,9,25,0.00,0,,221
2013-10-28,42,38,34,32,29,26,87,70,62,30.36,30.29,30.05,10,10,10,16,11,24,0.00,5,,60
2013-10-29,52,44,35,39,34,29,78,68,55,30.36,30.22,30.06,10,10,10,14,7,17,0.00,7,,106
2013-10-30,56,51,46,52,47,39,99,88,73,30.06,29.90,29.68,10,5,0,10,5,,0.03,6,Fog-Rain,117
2013-10-31,52,45,38,52,43,37,99,95,89,29.67,29.49,29.40,10,6,0,17,7,22,0.00,8,Fog,289